Regional Weather Roundup
Issued by NWS

Home | Current Version | Previous Version | Graphics & Text | Print | Product List | Glossary On
Versions: 1 2 3 4 5 6 7 8 9 10 11 12 13 14 15 16 17 18 19 20 21 22 23 24 25 26 27 28 29 30 31 32 33 34 35 36 37 38 39 40 41 42 43 44 45 46 47 48 49 50
000
ASUS45 KABQ 111601
RWRNM
WEATHER ROUNDUP FOR NEW MEXICO
NATIONAL WEATHER SERVICE ALBUQUERQUE NM
1000 AM MDT FRI JUL 11 2014

NOTE: "FAIR" MEANS FEW OR NO CLOUDS BELOW 12,000 FEET AGL WITH NO
       SIGNIFICANT WEATHER OR OBSTRUCTIONS TO VISION.

      THIS PRODUCT IS RELEASED AS TWO VERSIONS.  ONE VERSION NEAR
      THE TOP OF THE HOUR CONTAINING PRELIMINARY DATA FROM ALBUQUERQUE
      AND OTHER STATIONS.  A FINAL VERSION WITH ADDITIONAL DATA IS
      ISSUED ABOUT 10 MINUTES AFTER THE HOUR.

NMZ501-503-504-510>518-111700-
NORTHWEST PLATEAU/NORTHCENTRAL MOUNTAINS

CITY           SKY/WX    TMP DP  RH WIND       PRES   REMARKS
FARMINGTON     SUNNY     73  53  49 CALM      30.20S
LOS ALAMOS     SUNNY     72  49  44 CALM      30.32S
SANTA FE       SUNNY     78  49  35 CALM      30.24F
TAOS             N/A    N/A N/A N/A MISG        N/A
ANGEL FIRE     FAIR      69  49  49 CALM      30.39F

$$
NMZ402-403-502-505>509-111700-
WESTCENTRAL MOUNTAINS/SOUTHWEST MOUNTAINS

CITY           SKY/WX    TMP DP  RH WIND       PRES   REMARKS
GALLUP         PTSUNNY   70  56  61 W7        30.29F
GRANTS         LGT RAIN  67  54  61 NW3       30.31S

$$
NMZ407-409-411-412-111700-
SOUTHERN DESERTS

CITY           SKY/WX    TMP DP  RH WIND       PRES   REMARKS
LORDSBURG      FAIR      79  61  53 W12       30.10F
DEMING         SUNNY     85  54  34 NE12      30.09F
LAS CRUCES     SUNNY     83  52  34 E8        30.12S
HOLLOMAN AFB   MOSUNNY   82  52  35 CALM      30.10F
T OR C         MOSUNNY   84  52  33 CALM      30.14S

$$
NMZ519>523-111700-
CENTRAL VALLEYS/CENTRAL HIGHLANDS

CITY           SKY/WX    TMP DP  RH WIND       PRES   REMARKS
ALBUQUERQUE    MOSUNNY   78  53  41 CALM      30.19F
DOUBLE EAGLE   MOSUNNY   77  52  41 CALM      30.23F
CLINES CORNERS SUNNY     77  48  35 W7        30.29S
BELEN          FAIR      80  51  37 N5        30.18S
SOCORRO        FAIR      83  51  32 SE6       30.15F

$$
NMZ524>526-539-540-111700-
SOUTHCENTRAL MOUNTAINS

CITY           SKY/WX    TMP DP  RH WIND       PRES   REMARKS
RUIDOSO        NOT AVBL

$$
NMZ527>531-111700-
NORTHEAST HIGHLANDS/NORTHEAST PLAINS

CITY           SKY/WX    TMP DP  RH WIND       PRES   REMARKS
LAS VEGAS      SUNNY     73  50  44 S12       30.28F
RATON            N/A    N/A N/A N/A MISG      30.24F
CLAYTON        SUNNY     82  52  35 SW21      30.16S

$$
NMZ532>537-111700-
EASTCENTRAL PLAINS

CITY           SKY/WX    TMP DP  RH WIND       PRES   REMARKS
TUCUMCARI      SUNNY     83  55  38 SW13      30.13F
CANNON AFB     SUNNY     77  58  51 S13       30.18F
CLOVIS AIRPORT NOT AVBL

$$
NMZ028-029-538-111700-
SOUTHEAST PLAINS

CITY           SKY/WX    TMP DP  RH WIND       PRES   REMARKS
ROSWELL        SUNNY     78  59  51 SE13G20   30.13F
ARTESIA        SUNNY     75  59  57 SE8       30.14S
CARLSBAD       SUNNY     77  61  57 SE7G17    30.12S
HOBBS          MOSUNNY   75  59  57 SE10G18   30.17S


$$



USA.gov is the U.S. government's official web portal to all federal, state and local government web resources and services.